QZS-7

导读

QZS-7(NORAD 100270)是日本准天顶卫星系统(QZSS,昵称“导”/MICHIBIKI)第7颗卫星,2026年8月11日由H3运载火箭从种子岛宇宙中心发射入轨,为该系统首颗准地球静止轨道(QGEO)卫星,定点于西经175度。它的投用使QZSS完成4颗倾斜同步轨道、2颗地球静止轨道加1颗准静止轨道的7星组网,可提升高仰角卫星可见时长、优化定位精度因子,未来将播发L1C/B、L1C、L5等定位增强信号,支持高精度定位与灾害预警服务,相关运行性能标准已于2026年7月发布。

Basic Information
目录编号:
100270
目录名称:
QZS-7
国际标识:
2026-182A
轨道中心:
EARTH
卫星名称:
QZS-7
卫星全名:
QZS-7
卫星状态:
在轨 (已飞行36 天)
发射日期:
2026-08-10 UTC
国别 :
日本 (JP)
星等 :
--
This satellite is enrolled in the Space Conjunction Data Service (SCDS) and the current flight risk assessment level is: No High Risk
Orbit Information
数据来源 国际轨道数据 AOE轨道数据
星历时间 2026-09-15T12:21:46+0800
10小时前
查看轨道信息
2026-09-12T21:00:00+0800
3天前
查看轨道信息
半长轴 42159.683km 42159.935km
偏心率 0.0074472 0.0074441
轨道倾角 2.958° 2.964°
近地点辐角 358.771° 358.760°
升交点赤经 301.075° 301.072°
平近点角 304.283° 71.087°
近地点 35467.574km 35467.955km
远地点 36095.518km 36095.641km
周期 1435.839分钟 1435.852分钟
每日圈数 1.002898 1.002889
Detailed Information
使用方式:
暂无
2D Orbit Map
3D Orbit Map
Orbit Altitude Analysis Chart
Orbit Inclination Analysis Chart
Orbit Comprehensive Analysis Chart
View Comprehensive Chart
Miss Distance Evolution Trend with All Objects Subscribe to Flight Safety Assessment
Collision Probability Evolution Trend with All Objects Subscribe to Flight Safety Assessment